| time (UTC) | temp C | wind direction | speed KPH | gust KPH | rain 1hr cm | rain 24hr cm | rain mn cm | humidity % | barometer mb |
| 20260503212328 | 28 | 0.0 | 0.0 | 0.00 | 0.00 | 0.00 | 47 | 1009.4 | |
| 20260503211219 | 28 | 0.0 | 0.0 | 0.00 | 0.00 | 0.00 | 48 | 1009.4 | |
| 20260503210219 | 28 | 0.0 | 0.0 | 0.00 | 0.00 | 0.00 | 55 | 1009.5 | |
| 20260503205219 | 27 | 0.0 | 0.0 | 0.00 | 0.00 | 0.00 | 50 | 1009.7 | |
| 20260503204327 | 27 | 0.0 | 0.0 | 0.00 | 0.00 | 0.00 | 52 | 1009.7 | |
| 20260503203219 | 27 | 0.0 | 0.0 | 0.00 | 0.00 | 0.00 | 53 | 1009.9 | |
| 20260503202242 | 27 | 0.0 | 0.0 | 0.00 | 0.00 | 0.00 | 52 | 1010.0 | |
| 20260503201219 | 26 | 0.0 | 0.0 | 0.00 | 0.00 | 0.00 | 54 | 1010.1 | |
| 20260503200219 | 27 | 0.0 | 0.0 | 0.00 | 0.00 | 0.00 | 51 | 1010.2 | |
| 20260503195242 | 27 | 0.0 | 0.0 | 0.00 | 0.00 | 0.00 | 51 | 1010.5 | |
| 20260503194219 | 26 | 0.0 | 0.0 | 0.00 | 0.00 | 0.00 | 55 | 1010.6 | |
| 20260503193219 | 26 | 0.0 | 0.0 | 0.00 | 0.00 | 0.00 | 51 | 1010.6 | |
| 20260503192219 | 26 | 0.0 | 0.0 | 0.00 | 0.00 | 0.00 | 54 | 1010.8 | |
| 20260503191219 | 26 | 0.0 | 0.0 | 0.00 | 0.00 | 0.00 | 57 | 1010.9 | |
| 20260503190218 | 25 | 0.0 | 0.0 | 0.00 | 0.00 | 0.00 | 54 | 1010.9 | |
| 20260503185219 | 26 | 0.0 | 0.0 | 0.00 | 0.00 | 0.00 | 56 | 1011.1 | |
| 20260503184219 | 25 | 0.0 | 0.0 | 0.00 | 0.00 | 0.00 | 57 | 1011.2 | |
| 20260503183219 | 25 | 0.0 | 0.0 | 0.00 | 0.00 | 0.00 | 59 | 1011.4 | |
| 20260503182219 | 25 | 0.0 | 0.0 | 0.00 | 0.00 | 0.00 | 59 | 1011.4 | |
| 20260503181242 | 24 | 0.0 | 0.0 | 0.00 | 0.00 | 0.00 | 57 | 1011.4 | |
| 20260503180219 | 24 | 0.0 | 0.0 | 0.00 | 0.00 | 0.00 | 60 | 1011.5 | |
| 20260503175219 | 24 | 0.0 | 0.0 | 0.00 | 0.00 | 0.00 | 60 | 1011.6 | |
| 20260503174219 | 23 | 0.0 | 0.0 | 0.00 | 0.00 | 0.00 | 62 | 1011.6 | |
| 20260503173242 | 23 | 0.0 | 0.0 | 0.00 | 0.00 | 0.00 | 68 | 1011.7 | |
| 20260503172305 | 21 | 0.0 | 0.0 | 0.00 | 0.00 | 0.00 | 68 | 1011.8 | |
| 20260503171218 | 21 | 0.0 | 0.0 | 0.00 | 0.00 | 0.00 | 70 | 1011.8 | |
| 20260503170219 | 20 | 0.0 | 0.0 | 0.00 | 0.00 | 0.00 | 70 | 1012.0 | |
| 20260503150219 | 11 | 0.0 | 0.0 | 0.00 | 0.00 | 0.00 | 93 | 1012.4 | |
| 20260503140220 | 9 | 0.0 | 0.0 | 0.00 | 0.00 | 0.00 | 92 | 1012.2 | |
| 20260503131243 | 8 | 0.0 | 0.0 | 0.00 | 0.00 | 0.00 | 91 | 1012.1 | |
| 20260503130220 | 8 | 0.0 | 0.0 | 0.00 | 0.00 | 0.00 | 91 | 1012.1 | |
| 20260503120220 | 9 | 0.0 | 0.0 | 0.00 | 0.00 | 0.00 | 90 | 1012.2 | |
| 20260503110220 | 9 | 0.0 | 0.0 | 0.00 | 0.00 | 0.00 | 89 | 1012.5 | |
| 20260503100220 | 10 | 0.0 | 0.0 | 0.00 | 0.00 | 0.00 | 88 | 1012.4 | |
| 20260503090220 | 10 | 0.0 | 0.0 | 0.00 | 0.00 | 0.00 | 87 | 1012.5 | |
| 20260503081220 | 11 | 0.0 | 0.0 | 0.00 | 0.00 | 0.00 | 86 | 1012.5 | |
| 20260503080220 | 11 | 0.0 | 0.0 | 0.00 | 0.00 | 0.00 | 86 | 1012.5 | |
| 20260503072220 | 12 | 0.0 | 0.0 | 0.00 | 0.00 | 0.00 | 85 | 1012.3 | |
| 20260503071220 | 12 | 0.0 | 0.0 | 0.00 | 0.00 | 0.00 | 84 | 1012.3 | |
| 20260503070220 | 12 | 0.0 | 0.0 | 0.00 | 0.00 | 0.00 | 84 | 1012.4 | |
| 20260503060220 | 13 | 0.0 | 0.0 | 0.00 | 0.00 | 0.00 | 82 | 1012.4 | |
| 20260503054219 | 13 | 0.0 | 0.0 | 0.00 | 0.00 | 0.00 | 82 | 1012.2 | |
| 20260503053220 | 13 | 0.0 | 0.0 | 0.00 | 0.00 | 0.00 | 81 | 1012.1 | |
| 20260503052219 | 14 | 0.0 | 0.0 | 0.00 | 0.00 | 0.00 | 80 | 1012.2 | |
| 20260503051219 | 14 | 0.0 | 0.0 | 0.00 | 0.00 | 0.00 | 80 | 1012.0 | |
| 20260503050219 | 15 | 0.0 | 0.0 | 0.00 | 0.00 | 0.00 | 79 | 1012.1 | |
| 20260503045219 | 15 | 0.0 | 0.0 | 0.00 | 0.00 | 0.00 | 78 | 1012.2 | |
| 20260503044220 | 15 | 0.0 | 0.0 | 0.00 | 0.00 | 0.00 | 78 | 1012.2 | |
| 20260503043219 | 15 | 0.0 | 0.0 | 0.00 | 0.00 | 0.00 | 77 | 1011.9 | |
| 20260503042219 | 16 | 0.0 | 0.0 | 0.00 | 0.00 | 0.00 | 77 | 1011.7 | |
| 20260503041219 | 16 | 0.0 | 0.0 | 0.00 | 0.00 | 0.00 | 74 | 1011.7 | |
| 20260503040219 | 17 | 0.0 | 0.0 | 0.00 | 0.00 | 0.00 | 72 | 1011.6 | |
| 20260503035219 | 17 | 0.0 | 0.0 | 0.00 | 0.00 | 0.00 | 71 | 1011.5 | |
| 20260503034306 | 18 | 0.0 | 0.0 | 0.00 | 0.00 | 0.00 | 70 | 1011.3 | |
| 20260503033243 | 18 | 0.0 | 0.0 | 0.00 | 0.00 | 0.00 | 70 | 1011.1 | |
| 20260503032219 | 18 | 0.0 | 0.0 | 0.00 | 0.00 | 0.00 | 68 | 1010.9 | |
| 20260503031219 | 19 | 0.0 | 0.0 | 0.00 | 0.00 | 0.00 | 67 | 1010.8 | |
| 20260503030219 | 20 | 0.0 | 0.0 | 0.00 | 0.00 | 0.00 | 64 | 1010.6 | |
| 20260503025243 | 20 | 0.0 | 0.0 | 0.00 | 0.00 | 0.00 | 65 | 1010.7 | |
| 20260503024243 | 20 | 0.0 | 0.0 | 0.00 | 0.00 | 0.00 | 68 | 1010.7 | |
| 20260503023243 | 21 | 0.0 | 0.0 | 0.00 | 0.00 | 0.00 | 67 | 1010.6 | |
| 20260503022220 | 21 | 0.0 | 0.0 | 0.00 | 0.00 | 0.00 | 65 | 1010.6 | |
| 20260503021219 | 21 | 0.0 | 0.0 | 0.00 | 0.00 | 0.00 | 64 | 1010.5 | |
| 20260503020219 | 22 | 0.0 | 0.0 | 0.00 | 0.00 | 0.00 | 62 | 1010.5 | |
| 20260503015219 | 22 | 0.0 | 0.0 | 0.00 | 0.00 | 0.00 | 62 | 1010.5 | |
| 20260503014219 | 22 | 0.0 | 0.0 | 0.00 | 0.00 | 0.00 | 61 | 1010.4 | |
| 20260503013219 | 22 | 0.0 | 0.0 | 0.00 | 0.00 | 0.00 | 62 | 1010.5 | |
| 20260503012219 | 23 | 0.0 | 0.0 | 0.00 | 0.00 | 0.00 | 62 | 1010.5 | |
| 20260503011219 | 23 | 0.0 | 0.0 | 0.00 | 0.00 | 0.00 | 61 | 1010.5 | |
| 20260503010219 | 23 | 0.0 | 0.0 | 0.00 | 0.00 | 0.00 | 60 | 1010.5 | |
| 20260503005219 | 24 | 0.0 | 0.0 | 0.00 | 0.00 | 0.00 | 59 | 1010.7 | |
| 20260503004219 | 25 | 0.0 | 0.0 | 0.00 | 0.00 | 0.00 | 57 | 1010.7 | |
| 20260503003219 | 26 | 0.0 | 0.0 | 0.00 | 0.00 | 0.00 | 57 | 1010.7 | |
| 20260503002219 | 26 | 0.0 | 0.0 | 0.00 | 0.00 | 0.00 | 55 | 1010.6 | |
| 20260503001242 | 26 | 0.0 | 0.0 | 0.00 | 0.00 | 0.00 | 55 | 1010.8 | |
| 20260503000219 | 26 | 0.0 | 0.0 | 0.00 | 0.00 | 0.00 | 55 | 1010.8 | |
| 20260502235219 | 26 | 0.0 | 0.0 | 0.00 | 0.00 | 0.00 | 59 | 1010.9 | |
| 20260502234219 | 26 | 0.0 | 0.0 | 0.00 | 0.00 | 0.00 | 56 | 1011.1 | |
| 20260502233305 | 26 | 0.0 | 0.0 | 0.00 | 0.00 | 0.00 | 55 | 1011.2 | |
| 20260502232219 | 26 | 0.0 | 0.0 | 0.00 | 0.00 | 0.00 | 56 | 1011.2 | |
| 20260502231219 | 26 | 0.0 | 0.0 | 0.00 | 0.00 | 0.00 | 57 | 1011.6 | |
| 20260502230219 | 26 | 0.0 | 0.0 | 0.00 | 0.00 | 0.00 | 57 | 1011.8 | |
| 20260502225219 | 26 | 0.0 | 0.0 | 0.00 | 0.00 | 0.00 | 58 | 1011.9 | |
| 20260502224219 | 26 | 0.0 | 0.0 | 0.00 | 0.00 | 0.00 | 58 | 1011.9 | |
| 20260502223219 | 25 | 0.0 | 0.0 | 0.00 | 0.00 | 0.00 | 61 | 1012.1 | |
| 20260502222219 | 25 | 0.0 | 0.0 | 0.00 | 0.00 | 0.00 | 60 | 1012.2 | |
| 20260502221242 | 25 | 0.0 | 0.0 | 0.00 | 0.00 | 0.00 | 62 | 1012.4 | |
| 20260502220220 | 25 | 0.0 | 0.0 | 0.00 | 0.00 | 0.00 | 61 | 1012.4 | |
| 20260502215219 | 25 | 0.0 | 0.0 | 0.00 | 0.00 | 0.00 | 62 | 1012.6 | |
| 20260502214219 | 25 | 0.0 | 0.0 | 0.00 | 0.00 | 0.00 | 63 | 1012.6 | |
| 20260502213219 | 24 | 0.0 | 0.0 | 0.00 | 0.00 | 0.00 | 63 | 1012.7 |